TAF and METAR

Decoding for American and Canadian METARs and TAFs is not fully implemented.

Could not understand the following METAR

PACZ 181255Z AUTO 00000KT 5SM -SN OVC015 M06/M07 A2962 RMK AO2 SNB1116 SLP041 P0000 T10631072
No TAF available for Cape Romanzof Long Range Radar Station
Cape Romanzof Long Range Radar Station in United States of America at 146m

Latest 5 airports